Back to catalog

DELTA 1 DEB

AliveSSO
NORAD 7059·DEBRIS·🇺🇸 United States

Launched Nov 6, 1973 from Vandenberg Space Force Base

Loading…

Next Passes (next 24 hours)

TLE

FreshSource: Space-Track

Epoch: Sep 14, 2026, 05:19 UTC

1 07059U 73086BB  26257.22180770  .00000456  00000-0  42415-2 0  9997
2 07059 102.0176   7.8970 0108363 145.2089 329.9228 12.28532398360334

Track DELTA 1 DEB in real time with AllMySat

Download on the App Store